KGGP

Details ICAO KGGP
Name LOGANSPORT CASS CO
Region United States
Timezone America/Indiana/Indianapolis (UTC-4.0)
Plans Departing 0
Arriving 3
Stats Elevation 738 ft / 225 m (AMSL)
Location 40.711247° -86.374887°
Runways 1
Magnetic Variation 4.750° W
Sunrise 2018-05-27 10:20:35 UTC / 2018-05-27 06:20:35 Local
Sunset 2018-05-28 01:07:40 UTC / 2018-05-27 21:07:40 Local
Advertisement - Login to hide

Runways

ID Width Length Bearing (true) Bearing (mag) Surface Threshold Offset Overrun Length
09 75 ft / 23 m 4,467 ft / 1,361 m 89.37° 94.12° Asphalt 215 ft / 66 m 0 ft / 0 m
27 75 ft / 23 m 4,467 ft / 1,361 m 269.38° 274.13° Asphalt 0 ft / 0 m 0 ft / 0 m

Map

Weather


0- 5 10 15 20 25 30 35+ Temperature / ° C

Clouds and Precipitation
Forecast for 2018-05-27 18:00 UTC. Updated 3 hours ago

Ground ~20,000 ft ~40,000 ft Winds

METAR

KGGP 271955Z AUTO 03003KT 10SM SCT080 32/13 A2990 RMK AO2

TAF

Not found

Frequencies

Unicom 122.80 MHz CTAF/UNICOM
Approach 121.05 MHz GRISSOM APP/DEP
Warning: Do not use this data for real-world aviation or navigation. No guarantee of current accuracy is given.